Regional Weather Roundup
Issued by NWS

Home | Current Version | Previous Version | Graphics & Text | Print | Product List | Glossary On
Versions: 1 2 3 4 5 6 7 8 9 10 11 12 13 14 15 16 17 18 19 20 21 22 23 24 25 26 27 28 29 30 31 32 33 34 35 36 37 38 39 40 41 42 43 44 45 46 47 48 49 50
000
ASUS45 KBOU 211907
RWRCO

WEATHER ROUNDUP FOR COLORADO
NATIONAL WEATHER SERVICE DENVER/BOULDER CO
1200 PM MST SUN DEC 21 2014

NOTE: "FAIR" INDICATES FEW OR NO CLOUDS BELOW 12000 FEET WITH NO
SIGNIFICANT WEATHER AND/OR OBSTRUCTIONS TO VISIBILITY.

COZ001>005-013-030-031-212000-
...NORTHWEST COLORADO...

CITY           SKY/WX    TMP DP  RH WIND       PRES   REMARKS
CRAIG          CLOUDY    38  29  70 SW25G35   29.80F
HAYDEN         CLOUDY    30  27  86 E3        29.80F
MEEKER         LGT SNOW  33  29  85 NE5       29.89F VSB 3/4 WCI  29
MOUNT WERNER   NOT AVBL
STEAMBOAT SPGS CLOUDY    29  27  94 CALM      29.80F VSB 1
WALDEN         CLOUDY    30  23  74 SW16G22   29.73F WCI  19
$$

COZ006>008-011-212000-
...WEST CENTRAL VALLEYS...

CITY           SKY/WX    TMP DP  RH WIND       PRES   REMARKS
GRAND JUNCTION LGT SNOW  33  32  96 NW3       30.01S FOG
MONTROSE       LGT SNOW  32  29  88 CALM      29.99F FOG
EAGLE          LGT SNOW  34  30  86 W6        29.90F FOG     WCI  29
RIFLE          CLOUDY    34  28  79 W14G21    29.94F WCI  25
DELTA          LGT RAIN  35  33  92 CALM      30.01F
NUCLA          CLOUDY    34  28  80 CALM      30.05F
$$

COZ017>023-064>068-212000-
...SOUTHWEST COLORADO...

CITY           SKY/WX    TMP DP  RH WIND       PRES   REMARKS
DURANGO        CLOUDY    31  27  85 CALM      30.01S
CORTEZ         MOSUNNY   39  29  67 CALM      30.04F
PAGOSA SPRINGS CLOUDY    32  23  71 CALM      29.99F
TELLURIDE      NOT AVBL
WOLF CREEK PAS FOG       19  19 100 MISG      29.97F VSB<1/4
$$

COZ009-010-012-014-032>034-037-058>063-212000-
...CENTRAL COLORADO...

CITY           SKY/WX    TMP DP  RH WIND       PRES   REMARKS
ASPEN          LGT SNOW  26  23  88 N6        29.89F FOG     WCI  19
BUENA VISTA    CLOUDY    38  19  47 W26G37    29.80F
COPPER MTN     CLOUDY    23  18  80 W28G35    29.80F WCI   6
BERTHOUD PASS  CLOUDY    16  10  79 MISG      29.65F
COTTONWOOD PAS LGT SNOW  32  21  64 W22G44    29.79S WCI  19
GUNNISON       CLOUDY    27  21  80 N6        29.95F VSB 1   WCI  20
KREMMLING      LGT SNOW  32  28  86 W10G17    29.80F VSB 3/4 WCI  24
LEADVILLE      SNOW      24  20  84 N9        29.81F VSB 1/2 WCI  14
SALIDA         CLOUDY    43  20  39 W23G31    29.87F
SUNLIGHT       SNOW     N/A N/A N/A SW5       29.89F VSB 1/4
WILKERSON PASS CLOUDY    25  19  80 W18G32    29.78S WCI  11
$$

COZ069>075-212000-
...SAN LUIS VALLEY/SANGRE DE CRISTO MOUNTAINS...

CITY           SKY/WX    TMP DP  RH WIND       PRES   REMARKS
ALAMOSA        CLOUDY    36  20  52 S7        29.90F
LA VETA PASS   CLOUDY    28  18  64 SW22G36   29.76F WCI  15
SAGUACHE       CLOUDY    32  19  59 S9        29.90F WCI  24
$$

COZ035-036-038>040-212000-
...NORTHERN COLORADO FRONT RANGE...

CITY           SKY/WX    TMP DP  RH WIND       PRES   REMARKS
DENVER INTL AP CLOUDY    49  19  30 VRB5      29.59F
DMNS CITY PARK   N/A     47  20  34 NE5       29.59F
AURORA         PTSUNNY   45  19  35 SW5       29.61F
FRONT RANGE AP CLOUDY    50  23  34 W7        29.61F
ERIE MUNI ARPT   N/A     50  20  30 N7        29.58F
BOULDER MUN AP CLOUDY    52  23  32 E5        29.56F
CENTENNIAL     CLOUDY    45  20  36 SW7       29.61F
BROOMFIELD     PTSUNNY   50  21  32 W30G46    29.58F
FORT COLLINS   CLOUDY    37  21  52 NE6       29.59F
LONGMONT       CLOUDY    57  22  25 W23G32    29.57F
$$

COZ041-046-047-076>085-087-088-212000-
...PIKES PEAK/PALMER DIVIDE AND SOUTHERN FOOTHILLS...

CITY           SKY/WX    TMP DP  RH WIND       PRES   REMARKS
COLO. SPRINGS  CLOUDY    41  18  39 S6        29.65F
A. F. ACADEMY  CLOUDY    46  17  31 W16G23    29.63F
ELLICOTT       NOT AVBL
FALCON         CLOUDY    43  16  33 SW5       29.66F
FORT CARSON    CLOUDY    40  20  43 N8        29.63F
LIMON          PTSUNNY   48  18  30 S9        29.60F
MONUMENT HILL  CLOUDY    37  19  48 SW7       29.63F
TRINIDAD       CLOUDY    51  21  30 NW9       29.68F
$$

COZ042>045-048>051-090-091-212000-
...NORTHEAST COLORADO...

CITY           SKY/WX    TMP DP  RH WIND       PRES   REMARKS
GREELEY ARPT   CLOUDY    37  21  52 CALM      29.59S
AKRON          CLOUDY    43  26  51 S14       29.57F
BURLINGTON     MOSUNNY   51  26  37 S13       29.62F
WRAY           CLOUDY    44  32  62 S6        29.60F
STERLING       CLOUDY    36  30  80 SW6       29.57F
HOLYOKE        CLOUDY    41  32  70 S7        29.58F
FORT MORGAN    CLOUDY    35  25  66 CALM      29.58F
$$

COZ086-089-092>099-212000-
...SOUTHEAST COLORADO...

CITY           SKY/WX    TMP DP  RH WIND       PRES   REMARKS
PUEBLO         CLOUDY    50  19  29 SW18      29.61F
LA JUNTA       PTSUNNY   45  30  55 SE5       29.63F
LAMAR          SUNNY     51  29  42 MISG      29.63F
SPRINGFIELD      N/A     58  19  22 W14       29.65F
$$


USA.gov is the U.S. government's official web portal to all federal, state and local government web resources and services.